Weather Roundup
Issued by NWS Chicago, IL

Home | Current Version | Previous Version | Graphics & Text | Print | Product List | Glossary On
Versions: 1 2 3 4 5 6 7 8 9 10 11 12 13 14 15 16 17 18 19 20 21 22 23 24 25 26 27 28 29 30 31 32 33 34 35 36 37 38 39 40 41 42 43 44 45 46 47 48 49 50
000
NZUS59 KLOT 202010
HRRLOT

CHICAGO AREA WEATHER ROUNDUP
NATIONAL WEATHER SERVICE CHICAGO/ROMEOVILLE IL
200 PM CST SAT DEC 20 2014

NOTE: "FAIR" INDICATES FEW OR NO CLOUDS BELOW 12,000 FEET WITH NO
SIGNIFICANT WEATHER AND/OR OBSTRUCTIONS TO VISIBILITY.

* THESE STATIONS ARE NOT UNDER NWS QUALITY CONTROL. THEY ALSO MAY NOT
  REPORT WEATHER SUCH AS PRECIPITATION OR FOG.

ILZ005-006-012>014-019>023-202100-
NORTHEAST ILLINOIS

CITY           SKY/WX    TMP DP  RH WIND       PRES   REMARKS
OHARE          CLOUDY    32  23  69 SW7       30.23F WCI  26
MIDWAY         FLURRIES  34  25  69 SW9       30.24F WCI  27
AURORA         CLOUDY    32  25  75 S5        30.23F HAZE    WCI  27
LANSING*       CLOUDY    33  26  76 SW8       30.25F WCI  25
JOLIET*        CLOUDY    32  26  76 S5        30.24F WCI  28
WAUKEGAN       CLOUDY    32  24  72 CALM      30.23F
DUPAGE AIRPORT CLOUDY    32  24  72 S6        30.22F WCI  26
WHEELING       CLOUDY    33  23  66 SW7       30.25F WCI  27
KANKAKEE*      CLOUDY    33  27  76 SW7       30.26F WCI  27
MORRIS*        CLOUDY    33  28  82 S7        30.23F WCI  27
LEWIS AIRPORT* CLOUDY    32  25  73 SW7       30.24F WCI  26
NORTHERLY IS     N/A     33  24  70 SW9         N/A  WCI  25
$$

WIZ051-052-058>065-066-070>072-202100-
SOUTHEAST WISCONSIN

CITY           SKY/WX    TMP DP  RH WIND       PRES   REMARKS
MILWAUKEE      FLURRIES  31  21  66 W5        30.23F WCI  26
KENOSHA*       CLOUDY    31  24  75 SW3       30.23F
RACINE*        CLOUDY    31  23  72 W6        30.25F WCI  25
BURLINGTON     CLOUDY    30  24  78 CALM      30.22F
WAUKESHA       LGT SNOW  28  21  74 SW5       30.23F WCI  23
WEST BEND      CLOUDY    30  21  69 CALM      30.22S
$$

INZ001>003-010>013-019-020-202100-
NORTHWEST INDIANA

CITY           SKY/WX    TMP DP  RH WIND       PRES   REMARKS
GARY*          CLOUDY    34  21  60 SW9       30.25F WCI  26
MICHIGAN CITY* NOT AVBL
RENSSELAER*    NOT AVBL
VALPARAISO     CLOUDY    32  24  72 SW7       30.25S WCI  26
$$

LMZ740>746-202100-
SOUTHERN LAKE MICHIGAN

STATION/POSITION TIME  SKY/WX   TEMP WIND        PRES    VSBY
                                AIR  DIR/SP/G
                 (UTC)          (F)  (DEG/KT/KT) (MB)    (MI)
HARRISON CRIB    2000            33  220/ 11/ 16   N/A
BURNHAM HARBOR   2000            33  230/  9/  9   N/A
CALUMET HARBOR   2000            33  220/  4/ 10 1023.0R
BURNS HARBOR     NOT AVBL
MICHIGAN CITY    NOT AVBL
$$

ABBREVIATIONS USED IN REMARKS
   TC - TEMPERATURE IN CELSIUS
  WCI - WIND CHILL INDEX
   HX - HEAT INDEX
  VSB - VISIBILITY
$$



USA.gov is the U.S. government's official web portal to all federal, state and local government web resources and services.